Location: Goulburn
(34.7479°S, 149.7277°E)
Time: 11:19:27
(UTC+11:00)

LightSail 2 - Pass Details

Date: 29 October 2019
Orbit: 701 x 726 km, 24.0° (Epoch: 14 November)

Event Time Altitude Azimuth Distance (km) Brightness Sun altitude
Exits shadow 04:43:08 11° 350° (N) 2,114 7.2 -16.0°
Drops below altitude 10° 04:44:11 10° 2° (N) 2,211 7.4 -15.8°
Sets 04:48:18 0° 33° (NNE) 3,126 8.5 -15.0°
